Ludington, MI

11:52 AM EST on December 12, 2019 (GMT -0500)
Mason County

Weather History for KLDM - May, 2019

Change the Weather History Date:

Saturday, May 25, 2019

  Actual Average Record
Temperature  
Mean Temperature 64 °F -  
Max Temperature 72 °F 69 °F 88 °F (1972)
Min Temperature 57 °F 46 °F 27 °F (1992)
Growing Degree Days 14 (Base 50)    
Moisture  
Dew Point 60 °F    
Average Humidity 84    
Maximum Humidity 98    
Minimum Humidity 67    
Precipitation  
Precipitation 0.18 in - - ()
Sea Level Pressure  
Sea Level Pressure 29.84 in    
Wind  
Wind Speed 9 mph (SSW)    
Max Wind Speed 18 mph    
Max Gust Speed 25 mph    
Visibility 8 miles    
Events Rain    
Averages and records for this station are not official NWS values.
T = Trace of Precipitation, MM = Missing Value Source: NWS Daily Summary

Daily Weather History Graph

Daily Weather History Graph

Search for Another Location

Airport or City:

Astronomy

May. 25, 2019 Rise Set
Actual Time 6:10 AM EDT 9:15 PM EDT
Civil Twilight 5:36 AM EDT 9:49 PM EDT
Nautical Twilight 4:51 AM EDT 10:34 PM EDT
Astronomical Twilight 3:58 AM EDT 11:27 PM EDT
Moon 2:13 AM EDT (5/25) 12:12 PM EDT (5/25)
Length of Visible Light 16h 13m
Length of Day
15h 04m
Waning Gibbous, 60% of the Moon is Illuminated
May 25
Waning Gibbous
May 26
Last Quarter
Jun 3
New
Jun 10
First Quarter
Jun 17
Full

Hourly Weather History & Observations

Time (EDT) Temp. Dew Point Humidity Pressure Visibility Wind Dir Wind Speed Gust Speed Precip Events Conditions
12:15 AM 61.7 °F 54.5 °F 77% 29.90 in 10.0 mi SE 8.1 mph - N/A   Overcast
12:35 AM 61.9 °F 54.7 °F 77% 29.90 in 10.0 mi SE 8.1 mph - N/A   Overcast
12:55 AM 62.1 °F 54.9 °F 77% 29.89 in 10.0 mi SE 10.4 mph - N/A   Overcast
1:15 AM 62.6 °F 55.9 °F 79% 29.89 in 10.0 mi SE 6.9 mph 16.1 mph N/A   Overcast
1:16 AM 62.6 °F 55.9 °F 79% 29.89 in 10.0 mi SSE 5.8 mph 16.1 mph N/A   Overcast
1:35 AM 62.6 °F 57.2 °F 82% 29.88 in 10.0 mi SE 10.4 mph 16.1 mph N/A   Overcast
1:36 AM 62.6 °F 57.2 °F 82% 29.88 in 10.0 mi SE 12.7 mph 17.3 mph N/A   Overcast
1:55 AM 62.2 °F 57.2 °F 84% 29.86 in 10.0 mi SE 9.2 mph - N/A   Overcast
1:56 AM 62.2 °F 57.2 °F 84% 29.86 in 10.0 mi SE 9.2 mph - N/A   Overcast
2:15 AM 62.1 °F 57.6 °F 85% 29.85 in 10.0 mi SE 10.4 mph - N/A   Overcast
2:35 AM 62.6 °F 58.1 °F 85% 29.85 in 10.0 mi SE 8.1 mph - N/A   Overcast
2:55 AM 62.6 °F 58.1 °F 85% 29.84 in 10.0 mi SE 8.1 mph - N/A   Overcast
3:15 AM 62.6 °F 58.1 °F 85% 29.82 in 10.0 mi SE 6.9 mph - N/A   Overcast
3:16 AM 62.6 °F 58.1 °F 85% 29.82 in 10.0 mi SE 8.1 mph - N/A   Overcast
3:35 AM 62.4 °F 58.5 °F 87% 29.81 in 10.0 mi SE 6.9 mph - N/A   Overcast
3:36 AM 62.4 °F 58.6 °F 87% 29.81 in 10.0 mi SE 6.9 mph - N/A   Overcast
3:55 AM 62.6 °F 59.0 °F 88% 29.80 in 10.0 mi SSE 4.6 mph - N/A   Overcast
4:15 AM 63.0 °F 59.9 °F 90% 29.83 in 10.0 mi South 15.0 mph 25.3 mph N/A Rain Rain
4:35 AM 64.6 °F 62.4 °F 93% 29.82 in 10.0 mi South 13.8 mph 21.9 mph 0.04 in Rain Rain
4:36 AM 64.6 °F 62.6 °F 93% 29.82 in 10.0 mi South 13.8 mph 19.6 mph 0.04 in Rain Light Rain
4:55 AM 64.4 °F 62.2 °F 93% 29.82 in 10.0 mi SW 6.9 mph - 0.04 in   Mostly Cloudy
4:56 AM 64.2 °F 62.2 °F 93% 29.82 in 10.0 mi SW 8.1 mph - 0.04 in   Mostly Cloudy
5:15 AM 64.0 °F 62.6 °F 95% 29.82 in 10.0 mi South 9.2 mph - 0.01 in Rain Light Rain
5:16 AM 64.0 °F 62.6 °F 95% 29.82 in 10.0 mi South 9.2 mph - 0.02 in Rain Light Rain
5:35 AM 63.9 °F 62.6 °F 96% 29.80 in 7.0 mi South 4.6 mph - 0.12 in Rain Rain
5:55 AM 63.7 °F 62.6 °F 96% 29.79 in 10.0 mi SE 3.5 mph - 0.14 in Rain Light Rain
6:15 AM 63.5 °F 62.6 °F 97% 29.79 in 10.0 mi SE 4.6 mph - N/A   Mostly Cloudy
6:16 AM 63.5 °F 62.6 °F 97% 29.79 in 10.0 mi SE 4.6 mph - N/A   Mostly Cloudy
6:35 AM 63.5 °F 62.6 °F 97% 29.82 in 7.0 mi Calm Calm - N/A   Mostly Cloudy
6:36 AM 63.5 °F 62.6 °F 97% 29.82 in 10.0 mi Calm Calm - N/A   Overcast
6:55 AM 63.5 °F 62.6 °F 97% 29.80 in 7.0 mi Calm Calm - N/A   Overcast
7:15 AM 63.7 °F 62.8 °F 97% 29.79 in 4.0 mi ESE 3.5 mph - N/A   Overcast
7:35 AM 64.6 °F 63.9 °F 98% 29.79 in 4.0 mi SSE 4.6 mph - N/A   Mostly Cloudy
7:36 AM 64.6 °F 63.9 °F 98% 29.80 in 4.0 mi SSE 4.6 mph - N/A   Mostly Cloudy
7:55 AM 65.5 °F 64.6 °F 97% 29.79 in 4.0 mi SSE 5.8 mph - N/A   Mostly Cloudy
7:56 AM 65.5 °F 64.6 °F 97% 29.79 in 4.0 mi SSE 5.8 mph - N/A   Mostly Cloudy
8:15 AM 66.2 °F 64.6 °F 94% 29.80 in 5.0 mi SSE 8.1 mph - N/A   Overcast
8:16 AM 66.2 °F 64.6 °F 94% 29.80 in 5.0 mi SSE 8.1 mph - N/A   Overcast
8:35 AM 66.2 °F 64.4 °F 94% 29.80 in 7.0 mi South 6.9 mph - N/A   Overcast
8:55 AM 66.4 °F 64.4 °F 93% 29.81 in 7.0 mi South 5.8 mph - N/A   Overcast
9:15 AM 65.1 °F 62.2 °F 90% 29.82 in 7.0 mi WSW 6.9 mph - N/A   Overcast
9:16 AM 64.9 °F 62.2 °F 91% 29.82 in 7.0 mi WSW 6.9 mph - N/A   Overcast
9:35 AM 64.6 °F 62.4 °F 93% 29.83 in 4.0 mi WSW 8.1 mph - N/A   Overcast
9:36 AM 64.6 °F 62.6 °F 93% 29.83 in 4.0 mi WSW 8.1 mph - N/A   Overcast
9:55 AM 62.8 °F 61.0 °F 94% 29.85 in 3.0 mi SW 10.4 mph 17.3 mph N/A   Overcast
9:56 AM 62.8 °F 61.2 °F 94% 29.84 in 3.0 mi WSW 10.4 mph 17.3 mph N/A   Overcast
10:15 AM 62.6 °F 61.0 °F 94% 29.84 in 2.5 mi SW 10.4 mph 16.1 mph N/A   Overcast
10:16 AM 62.6 °F 61.0 °F 94% 29.84 in 3.0 mi SW 10.4 mph 16.1 mph N/A   Overcast
10:35 AM 62.1 °F 60.1 °F 93% 29.83 in 4.0 mi WSW 11.5 mph - N/A   Overcast
10:55 AM 60.4 °F 58.5 °F 93% 29.83 in 4.0 mi WSW 11.5 mph - N/A   Overcast
11:15 AM 59.9 °F 57.9 °F 93% 29.84 in 5.0 mi WSW 6.9 mph - N/A   Overcast
11:16 AM 59.9 °F 57.9 °F 93% 29.84 in 5.0 mi WSW 6.9 mph - N/A   Overcast
11:35 AM 59.2 °F 57.6 °F 94% 29.84 in 5.0 mi SW 5.8 mph - N/A   Overcast
11:36 AM 59.4 °F 57.7 °F 94% 29.84 in 5.0 mi WSW 5.8 mph - N/A   Overcast
11:55 AM 59.5 °F 57.6 °F 93% 29.84 in 4.0 mi WSW 3.5 mph - N/A   Overcast
11:56 AM 59.5 °F 57.7 °F 94% 29.84 in 4.0 mi WSW 4.6 mph - N/A   Overcast
12:15 PM 60.3 °F 58.5 °F 94% 29.85 in 5.0 mi WSW 4.6 mph - N/A   Overcast
12:35 PM 61.9 °F 60.1 °F 94% 29.85 in 7.0 mi WSW 6.9 mph - N/A   Overcast
12:55 PM 62.6 °F 60.4 °F 93% 29.86 in 7.0 mi SW 6.9 mph - N/A   Overcast
12:56 PM 62.8 °F 60.6 °F 93% 29.86 in 7.0 mi SW 8.1 mph - N/A   Overcast
1:15 PM 65.5 °F 62.4 °F 90% 29.86 in 7.0 mi SW 13.8 mph 19.6 mph N/A   Overcast
1:16 PM 65.3 °F 62.2 °F 90% 29.86 in 7.0 mi SW 11.5 mph 19.6 mph N/A   Overcast
1:35 PM 66.0 °F 62.1 °F 87% 29.86 in 10.0 mi SW 13.8 mph 19.6 mph N/A   Mostly Cloudy
1:55 PM 65.3 °F 61.9 °F 89% 29.85 in 7.0 mi WSW 17.3 mph 23.0 mph N/A   Mostly Cloudy
2:15 PM 66.4 °F 60.6 °F 82% 29.85 in 10.0 mi SW 17.3 mph 21.9 mph N/A   Scattered Clouds
2:16 PM 66.2 °F 60.6 °F 82% 29.85 in 10.0 mi SW 17.3 mph 21.9 mph N/A   Scattered Clouds
2:35 PM 66.9 °F 61.0 °F 81% 29.85 in 10.0 mi WSW 16.1 mph 23.0 mph N/A   Clear
2:36 PM 67.1 °F 61.0 °F 81% 29.85 in 10.0 mi WSW 16.1 mph 23.0 mph N/A   Clear
2:55 PM 68.4 °F 61.9 °F 80% 29.85 in 10.0 mi SW 17.3 mph - N/A   Clear
2:56 PM 68.4 °F 61.9 °F 80% 29.85 in 10.0 mi WSW 17.3 mph - N/A   Clear
3:15 PM 68.2 °F 62.2 °F 81% 29.85 in 10.0 mi SW 15.0 mph 19.6 mph N/A   Clear
3:35 PM 70.3 °F 63.0 °F 77% 29.84 in 10.0 mi SSW 16.1 mph - N/A   Clear
3:55 PM 70.3 °F 63.0 °F 77% 29.84 in 10.0 mi SSW 15.0 mph - N/A   Clear
3:56 PM 70.3 °F 63.1 °F 78% 29.84 in 10.0 mi SW 15.0 mph - N/A   Clear
4:15 PM 70.7 °F 63.3 °F 77% 29.84 in 10.0 mi SW 16.1 mph 24.2 mph N/A   Clear
4:16 PM 70.5 °F 63.3 °F 78% 29.84 in 10.0 mi SW 16.1 mph 21.9 mph N/A   Clear
4:35 PM 71.1 °F 63.9 °F 78% 29.84 in 10.0 mi SW 10.4 mph 19.6 mph N/A   Clear
4:36 PM 71.1 °F 64.0 °F 78% 29.84 in 10.0 mi SW 12.7 mph 19.6 mph N/A   Clear
4:55 PM 70.2 °F 63.3 °F 79% 29.85 in 10.0 mi SW 13.8 mph 23.0 mph N/A   Clear
5:15 PM 68.9 °F 62.6 °F 80% 29.86 in 10.0 mi SSW 16.1 mph 25.3 mph N/A   Clear
5:35 PM 68.9 °F 62.1 °F 79% 29.85 in 10.0 mi South 12.7 mph - N/A   Clear
5:36 PM 68.9 °F 62.2 °F 79% 29.85 in 10.0 mi South 11.5 mph - N/A   Clear
5:55 PM 70.2 °F 62.6 °F 77% 29.85 in 10.0 mi South 12.7 mph - N/A   Clear
5:56 PM 70.2 °F 62.8 °F 77% 29.85 in 10.0 mi South 12.7 mph - N/A   Clear
6:15 PM 71.6 °F 62.4 °F 73% 29.85 in 10.0 mi SW 17.3 mph 24.2 mph N/A   Clear
6:35 PM 71.6 °F 61.7 °F 71% 29.85 in 10.0 mi SSW 13.8 mph 20.7 mph N/A   Clear
6:55 PM 72.0 °F 61.9 °F 70% 29.85 in 10.0 mi SSW 18.4 mph 24.2 mph N/A   Clear
6:56 PM 72.0 °F 61.7 °F 70% 29.85 in 10.0 mi SW 17.3 mph 25.3 mph N/A   Clear
7:15 PM 71.6 °F 61.7 °F 71% 29.85 in 10.0 mi SW 15.0 mph 21.9 mph N/A   Clear
7:16 PM 71.6 °F 61.7 °F 71% 29.85 in 10.0 mi SW 16.1 mph 21.9 mph N/A   Clear
7:35 PM 71.4 °F 60.4 °F 68% 29.85 in 10.0 mi SW 13.8 mph 24.2 mph N/A   Clear
7:36 PM 71.4 °F 60.3 °F 68% 29.84 in 10.0 mi SSW 17.3 mph 24.2 mph N/A   Clear
7:55 PM 70.9 °F 59.5 °F 67% 29.85 in 10.0 mi SW 12.7 mph 20.7 mph N/A   Clear
8:15 PM 70.0 °F 59.0 °F 68% 29.85 in 10.0 mi SW 13.8 mph - N/A   Clear
8:35 PM 68.9 °F 57.9 °F 68% 29.85 in 10.0 mi SW 10.4 mph 21.9 mph N/A   Clear
8:36 PM 68.9 °F 58.1 °F 68% 29.85 in 10.0 mi SW 11.5 mph 17.3 mph N/A   Clear
8:55 PM 68.5 °F 57.4 °F 67% 29.85 in 10.0 mi SW 15.0 mph - N/A   Clear
8:56 PM 68.4 °F 57.4 °F 68% 29.85 in 10.0 mi SW 13.8 mph 17.3 mph N/A   Clear
9:15 PM 68.0 °F 56.7 °F 67% 29.85 in 10.0 mi SW 11.5 mph 17.3 mph N/A   Clear
9:35 PM 66.4 °F 55.9 °F 69% 29.85 in 10.0 mi WSW 11.5 mph - N/A   Clear
9:55 PM 65.7 °F 55.4 °F 69% 29.85 in 10.0 mi WSW 10.4 mph - N/A   Clear
10:15 PM 65.3 °F 55.0 °F 69% 29.86 in 10.0 mi WSW 12.7 mph - N/A   Clear
10:35 PM 64.8 °F 54.5 °F 69% 29.87 in 10.0 mi WSW 10.4 mph - N/A   Clear
10:36 PM 64.8 °F 54.5 °F 69% 29.87 in 10.0 mi WSW 10.4 mph - N/A   Clear
10:55 PM 63.7 °F 53.6 °F 70% 29.88 in 10.0 mi WSW 6.9 mph 20.7 mph N/A   Mostly Cloudy
10:56 PM 63.5 °F 53.6 °F 70% 29.88 in 10.0 mi WSW 6.9 mph 20.7 mph N/A   Mostly Cloudy
11:15 PM 60.8 °F 52.2 °F 73% 29.89 in 10.0 mi WSW 9.2 mph - N/A   Scattered Clouds
11:35 PM 58.8 °F 51.6 °F 77% 29.90 in 10.0 mi West 8.1 mph - N/A   Clear
11:55 PM 57.7 °F 51.1 °F 78% 29.91 in 10.0 mi WSW 5.8 mph - N/A   Clear
11:56 PM 57.6 °F 50.9 °F 78% 29.91 in 10.0 mi West 5.8 mph - N/A   Clear